JBU1759 KJFK-MKJP

Flight info

Callsign JBU1759
Flight time N/A
Altitude 36000
Route N0447F360 DCT WAVEY DCT EMJAY Q167 ZJAAY DCT KALDA DCT TUGGR Q101 SKARP DCT IDOLS DCT RROOO Y323 CARPX Y307 ENAMO DCT NEFTU/N0434F370 UP525 EMABU UA301 IMADI DCT SAVEM ELSER6
Aircraft A320/M-SDE3FGHIRWY/LB1

Departure

Time 2026-05-06 16:10
Airport John F. Kennedy International Airport (KJFK)

Arrival

Time N/A
Airport Norman Manley International Airport (MKJP)
Time Latitude Longitude Altitude Speed Heading
2026-05-06 15:45 40.64545 -73.77300 27 ft 0 kts
2026-05-06 15:58 40.64537 -73.77300 27 ft 2 kts
2026-05-06 15:58 40.64519 -73.77304 27 ft 3 kts 17°
2026-05-06 15:58 40.64501 -73.77315 27 ft 3 kts 34°
2026-05-06 15:59 40.64486 -73.77333 27 ft 3 kts 52°
2026-05-06 15:59 40.64476 -73.77356 27 ft 3 kts 67°
2026-05-06 15:59 40.64472 -73.77368 27 ft 0 kts 69°
2026-05-06 16:01 40.64473 -73.77368 27 ft 0 kts 69°
2026-05-06 16:02 40.64476 -73.77356 27 ft 3 kts 74°
2026-05-06 16:02 40.64472 -73.77307 27 ft 7 kts 104°
2026-05-06 16:02 40.64458 -73.77226 27 ft 11 kts 103°
2026-05-06 16:02 40.64440 -73.77128 27 ft 11 kts 104°
2026-05-06 16:03 40.64424 -73.77029 27 ft 11 kts 95°
2026-05-06 16:03 40.64470 -73.76965 27 ft 10 kts 32°
2026-05-06 16:03 40.64532 -73.76923 27 ft 10 kts 22°
2026-05-06 16:03 40.64598 -73.76887 27 ft 10 kts 22°
2026-05-06 16:04 40.64667 -73.76853 27 ft 10 kts 30°
2026-05-06 16:04 40.64732 -73.76810 27 ft 11 kts 28°
2026-05-06 16:04 40.64799 -73.76761 27 ft 11 kts 31°
2026-05-06 16:04 40.64868 -73.76704 27 ft 12 kts 32°
2026-05-06 16:05 40.64943 -73.76643 27 ft 14 kts 31°
2026-05-06 16:05 40.65022 -73.76583 27 ft 13 kts 29°
2026-05-06 16:05 40.65096 -73.76530 27 ft 8 kts 39°
2026-05-06 16:05 40.65100 -73.76465 27 ft 8 kts 116°
2026-05-06 16:06 40.65082 -73.76419 27 ft 0 kts 116°
2026-05-06 16:08 40.65081 -73.76417 27 ft 1 kts 116°
2026-05-06 16:08 40.65065 -73.76380 27 ft 9 kts 127°
2026-05-06 16:08 40.65033 -73.76350 27 ft 5 kts 193°
2026-05-06 16:08 40.65013 -73.76362 27 ft 0 kts 209°
2026-05-06 16:09 40.65008 -73.76366 27 ft 8 kts 209°
2026-05-06 16:09 40.64748 -73.76569 28 ft 78 kts 209°
2026-05-06 16:09 40.64103 -73.77072 28 ft 135 kts 210°
2026-05-06 16:10 40.63241 -73.77765 370 ft 148 kts 210°
2026-05-06 16:10 40.62348 -73.78459 1053 ft 147 kts 211°
2026-05-06 16:10 40.61436 -73.79169 1476 ft 162 kts 214°
2026-05-06 16:10 40.60397 -73.80003 1787 ft 186 kts 213°
2026-05-06 16:11 40.59212 -73.80871 2244 ft 204 kts 201°
2026-05-06 16:11 40.57726 -73.81057 2724 ft 231 kts 178°
2026-05-06 16:11 40.56157 -73.80223 3339 ft 258 kts 152°
2026-05-06 16:11 40.54767 -73.78679 4226 ft 263 kts 146°
2026-05-06 16:12 40.53411 -73.77051 5104 ft 265 kts 144°
2026-05-06 16:12 40.52063 -73.75357 5940 ft 269 kts 143°
2026-05-06 16:12 40.50718 -73.73628 6750 ft 272 kts 144°
2026-05-06 16:12 40.49355 -73.71892 7556 ft 274 kts 144°
2026-05-06 16:13 40.47971 -73.70156 8310 ft 277 kts 145°
2026-05-06 16:13 40.46570 -73.68401 9072 ft 280 kts 145°
2026-05-06 16:13 40.45153 -73.66622 9811 ft 283 kts 145°
2026-05-06 16:13 40.43719 -73.64818 10479 ft 289 kts 145°
2026-05-06 16:14 40.42237 -73.62960 10953 ft 301 kts 145°
2026-05-06 16:14 40.40688 -73.61025 11357 ft 314 kts 144°
2026-05-06 16:14 40.39070 -73.59004 11710 ft 328 kts 144°
2026-05-06 16:14 40.37380 -73.56890 12047 ft 342 kts 143°
2026-05-06 16:15 40.35665 -73.54733 12575 ft 348 kts 143°
2026-05-06 16:15 40.33915 -73.52524 13186 ft 351 kts 143°
2026-05-06 16:15 40.32138 -73.50291 13747 ft 356 kts 143°
2026-05-06 16:15 40.30335 -73.48038 14288 ft 360 kts 143°
2026-05-06 16:16 40.28508 -73.45760 14825 ft 365 kts 143°
2026-05-06 16:16 40.26657 -73.43451 15331 ft 370 kts 143°
2026-05-06 16:16 40.24784 -73.41117 15835 ft 374 kts 143°
2026-05-06 16:16 40.22834 -73.38848 16347 ft 374 kts 148°
2026-05-06 16:17 40.20748 -73.36803 16835 ft 377 kts 150°
2026-05-06 16:17 40.18596 -73.34814 17326 ft 380 kts 151°
2026-05-06 16:17 40.16408 -73.32830 17798 ft 385 kts 151°
2026-05-06 16:17 40.14199 -73.30828 18271 ft 388 kts 153°
2026-05-06 16:18 40.11798 -73.29285 18709 ft 381 kts 168°
2026-05-06 16:18 40.09228 -73.28789 19140 ft 370 kts 188°
2026-05-06 16:18 40.06749 -73.29451 19570 ft 360 kts 208°
2026-05-06 16:18 40.04641 -73.31068 19976 ft 353 kts 224°
2026-05-06 16:19 40.02788 -73.33182 20445 ft 354 kts 227°
2026-05-06 16:19 40.00971 -73.35370 20896 ft 356 kts 227°
2026-05-06 16:19 39.99129 -73.37556 21350 ft 359 kts 227°
2026-05-06 16:19 39.97238 -73.39708 21794 ft 362 kts 226°
2026-05-06 16:20 39.95308 -73.41841 22232 ft 364 kts 225°
2026-05-06 16:20 39.93366 -73.43969 22651 ft 366 kts 226°
2026-05-06 16:20 39.91412 -73.46125 23057 ft 368 kts 226°
2026-05-06 16:20 39.89463 -73.48296 23458 ft 370 kts 226°
2026-05-06 16:21 39.87504 -73.50487 23856 ft 371 kts 226°
2026-05-06 16:21 39.85540 -73.52682 24245 ft 373 kts 226°
2026-05-06 16:21 39.83558 -73.54886 24625 ft 375 kts 226°
2026-05-06 16:21 39.81573 -73.57092 24993 ft 376 kts 226°
2026-05-06 16:22 39.79582 -73.59308 25352 ft 378 kts 227°
2026-05-06 16:22 39.77600 -73.61516 25698 ft 379 kts 227°
2026-05-06 16:22 39.75577 -73.63762 26041 ft 381 kts 227°
2026-05-06 16:22 39.73555 -73.66008 26378 ft 383 kts 227°
2026-05-06 16:23 39.71548 -73.68237 26701 ft 384 kts 228°
2026-05-06 16:23 39.69509 -73.70498 27016 ft 386 kts 228°
2026-05-06 16:23 39.67461 -73.72767 27325 ft 388 kts 228°
2026-05-06 16:23 39.65406 -73.75044 27617 ft 390 kts 229°
2026-05-06 16:24 39.63337 -73.77333 27894 ft 392 kts 229°
2026-05-06 16:24 39.61254 -73.79633 28181 ft 394 kts 229°
2026-05-06 16:24 39.59163 -73.81942 28461 ft 395 kts 229°
2026-05-06 16:24 39.57062 -73.84258 28740 ft 397 kts 229°
2026-05-06 16:25 39.54950 -73.86586 29008 ft 399 kts 230°
2026-05-06 16:25 39.52829 -73.88926 29250 ft 401 kts 230°
2026-05-06 16:25 39.50695 -73.91277 29497 ft 404 kts 230°
2026-05-06 16:25 39.48571 -73.93610 29748 ft 405 kts 230°
2026-05-06 16:26 39.46415 -73.95978 29999 ft 407 kts 230°
2026-05-06 16:26 39.44251 -73.98358 30242 ft 409 kts 230°
2026-05-06 16:26 39.42079 -74.00745 30507 ft 410 kts 231°
2026-05-06 16:26 39.39901 -74.03130 30831 ft 409 kts 231°
2026-05-06 16:27 39.37726 -74.05508 31130 ft 410 kts 231°
2026-05-06 16:27 39.35550 -74.07888 31415 ft 410 kts 230°
2026-05-06 16:27 39.33371 -74.10267 31706 ft 410 kts 230°
2026-05-06 16:27 39.31187 -74.12647 31986 ft 410 kts 230°
2026-05-06 16:28 39.29000 -74.15028 32269 ft 410 kts 230°
2026-05-06 16:28 39.26844 -74.17372 32535 ft 410 kts 229°
2026-05-06 16:28 39.24662 -74.19746 32802 ft 410 kts 229°
2026-05-06 16:28 39.22477 -74.22125 33044 ft 411 kts 229°
2026-05-06 16:29 39.20294 -74.24510 33299 ft 411 kts 229°
2026-05-06 16:29 39.18106 -74.26888 33551 ft 411 kts 229°
2026-05-06 16:29 39.15918 -74.29260 33801 ft 411 kts 229°
2026-05-06 16:29 39.13727 -74.31632 34043 ft 411 kts 228°
2026-05-06 16:30 39.11532 -74.34004 34283 ft 411 kts 228°
2026-05-06 16:30 39.10077 -74.35576 34434 ft 411 kts 228°
2026-05-06 16:30 39.07142 -74.38750 34743 ft 411 kts 228°
2026-05-06 16:30 39.04948 -74.41119 34954 ft 412 kts 228°
2026-05-06 16:31 39.02781 -74.43463 35173 ft 412 kts 228°
2026-05-06 16:31 39.00593 -74.45826 35374 ft 412 kts 228°
2026-05-06 16:31 38.98396 -74.48197 35570 ft 412 kts 228°
2026-05-06 16:31 38.96194 -74.50556 35763 ft 412 kts 227°
2026-05-06 16:32 38.93997 -74.52930 35943 ft 411 kts 229°
2026-05-06 16:32 38.91865 -74.55390 35983 ft 414 kts 230°
2026-05-06 16:32 38.87617 -74.60401 35975 ft 415 kts 230°
2026-05-06 16:33 38.83354 -74.65401 35974 ft 415 kts 230°
2026-05-06 16:34 38.76935 -74.72874 35974 ft 415 kts 230°
2026-05-06 16:34 38.72579 -74.77696 35980 ft 418 kts 227°
2026-05-06 16:35 38.68055 -74.82386 36005 ft 418 kts 226°
2026-05-06 16:35 38.63531 -74.87067 35998 ft 418 kts 227°
2026-05-06 16:36 38.59001 -74.91670 35994 ft 423 kts 221°
2026-05-06 16:36 38.53657 -74.95053 36009 ft 431 kts 211°
2026-05-06 16:37 38.48141 -74.98007 36012 ft 427 kts 212°
2026-05-06 16:37 38.42734 -75.01066 35987 ft 422 kts 213°
2026-05-06 16:38 38.37378 -75.04177 35999 ft 430 kts 213°
2026-05-06 16:38 38.31873 -75.07299 36000 ft 432 kts 212°
2026-05-06 16:39 38.26370 -75.10392 36003 ft 432 kts 212°
2026-05-06 16:39 38.20882 -75.13502 36004 ft 432 kts 212°
2026-05-06 16:40 38.15390 -75.16610 36009 ft 432 kts 212°
2026-05-06 16:40 38.09926 -75.19693 36013 ft 432 kts 213°
2026-05-06 16:41 38.04430 -75.22785 36040 ft 431 kts 213°
2026-05-06 16:41 37.99880 -75.25341 36038 ft 429 kts 213°
2026-05-06 16:42 37.94422 -75.28400 36025 ft 427 kts 213°
2026-05-06 16:42 37.88992 -75.31445 35983 ft 426 kts 213°
2026-05-06 16:43 37.83597 -75.34464 35951 ft 426 kts 213°
2026-05-06 16:43 37.78167 -75.37494 35956 ft 426 kts 213°
2026-05-06 16:44 37.72737 -75.40528 35960 ft 427 kts 213°
2026-05-06 16:44 37.67277 -75.43571 35961 ft 428 kts 213°
2026-05-06 16:45 37.60922 -75.47094 35978 ft 430 kts 213°
2026-05-06 16:45 37.56364 -75.49624 35986 ft 431 kts 213°
2026-05-06 16:46 37.50857 -75.52680 36021 ft 431 kts 212°
2026-05-06 16:46 37.45363 -75.55709 36072 ft 431 kts 213°
2026-05-06 16:47 37.39888 -75.58738 36066 ft 431 kts 213°
2026-05-06 16:47 37.34381 -75.61776 36070 ft 431 kts 213°
2026-05-06 16:48 37.28881 -75.64808 36057 ft 431 kts 213°
2026-05-06 16:48 37.23408 -75.67808 36026 ft 431 kts 213°
2026-05-06 16:49 37.17899 -75.70824 35999 ft 432 kts 212°
2026-05-06 16:49 37.12387 -75.73841 35983 ft 433 kts 213°
2026-05-06 16:50 37.06858 -75.76879 35978 ft 434 kts 212°
2026-05-06 16:50 37.01324 -75.79896 36005 ft 434 kts 212°
2026-05-06 16:51 36.95816 -75.82899 36045 ft 434 kts 212°
2026-05-06 16:51 36.90281 -75.85910 36067 ft 434 kts 212°
2026-05-06 16:52 36.84741 -75.88914 36072 ft 434 kts 212°
2026-05-06 16:52 36.79206 -75.91927 36068 ft 433 kts 213°
2026-05-06 16:53 36.73680 -75.94923 36059 ft 433 kts 213°
2026-05-06 16:53 36.68142 -75.97909 36017 ft 433 kts 213°
2026-05-06 16:54 36.62640 -76.00874 35999 ft 433 kts 213°
2026-05-06 16:54 36.57092 -76.03866 35993 ft 434 kts 213°
2026-05-06 16:55 36.51523 -76.06859 36004 ft 435 kts 213°
2026-05-06 16:55 36.45981 -76.09852 36003 ft 437 kts 213°
2026-05-06 16:56 36.40383 -76.12848 36005 ft 438 kts 212°
2026-05-06 16:56 36.34786 -76.15849 36060 ft 438 kts 212°
2026-05-06 16:57 36.29181 -76.18846 36096 ft 438 kts 212°
2026-05-06 16:57 36.23571 -76.21843 36097 ft 438 kts 212°
2026-05-06 16:58 36.17970 -76.24846 36098 ft 439 kts 212°
2026-05-06 16:58 36.12391 -76.27813 36076 ft 440 kts 212°
2026-05-06 16:59 36.06760 -76.30794 36036 ft 440 kts 213°
2026-05-06 16:59 36.01126 -76.33788 36028 ft 441 kts 213°
2026-05-06 17:00 35.95473 -76.36788 36036 ft 442 kts 213°
2026-05-06 17:00 35.89797 -76.39782 36040 ft 443 kts 213°
2026-05-06 17:01 35.84132 -76.42775 36094 ft 443 kts 213°
2026-05-06 17:01 35.78463 -76.45771 36098 ft 443 kts 213°
2026-05-06 17:02 35.72821 -76.48751 36073 ft 445 kts 213°
2026-05-06 17:02 35.67115 -76.51740 36046 ft 446 kts 213°
2026-05-06 17:03 35.61410 -76.54736 36094 ft 445 kts 213°
2026-05-06 17:03 35.55711 -76.57726 36093 ft 446 kts 212°
2026-05-06 17:04 35.49998 -76.60718 36115 ft 445 kts 212°
2026-05-06 17:04 35.44291 -76.63707 36091 ft 446 kts 212°
2026-05-06 17:05 35.38555 -76.66694 36074 ft 447 kts 212°
2026-05-06 17:05 35.32855 -76.69658 36075 ft 447 kts 212°
2026-05-06 17:06 35.27135 -76.72652 36076 ft 447 kts 212°
2026-05-06 17:06 35.21393 -76.75623 36077 ft 447 kts 212°
2026-05-06 17:07 35.15657 -76.78589 36096 ft 447 kts 212°
2026-05-06 17:07 35.09966 -76.81542 36127 ft 446 kts 213°
2026-05-06 17:08 35.04247 -76.84506 36130 ft 446 kts 212°
2026-05-06 17:08 34.98527 -76.87458 36124 ft 446 kts 212°
2026-05-06 17:09 34.92817 -76.90407 36112 ft 446 kts 212°
2026-05-06 17:09 34.87087 -76.93350 36100 ft 446 kts 212°
2026-05-06 17:10 34.81371 -76.96294 36094 ft 446 kts 213°
2026-05-06 17:10 34.75689 -76.99216 36093 ft 446 kts 212°
2026-05-06 17:11 34.69968 -77.02137 36093 ft 446 kts 212°
2026-05-06 17:11 34.64246 -77.05067 36099 ft 446 kts 212°
2026-05-06 17:12 34.58518 -77.07990 36112 ft 446 kts 212°
2026-05-06 17:12 34.52804 -77.10904 36125 ft 446 kts 212°
2026-05-06 17:13 34.47081 -77.13821 36127 ft 446 kts 212°
2026-05-06 17:13 34.41389 -77.16717 36102 ft 446 kts 212°
2026-05-06 17:14 34.35649 -77.19639 36068 ft 447 kts 212°
2026-05-06 17:14 34.29911 -77.22535 36105 ft 445 kts 213°
2026-05-06 17:15 34.24202 -77.25430 36126 ft 444 kts 213°
2026-05-06 17:15 34.18552 -77.28288 36126 ft 442 kts 213°
2026-05-06 17:16 34.12881 -77.31158 36087 ft 441 kts 213°
2026-05-06 17:16 34.07213 -77.34011 36046 ft 441 kts 213°
2026-05-06 17:17 34.01536 -77.36860 36048 ft 441 kts 213°
2026-05-06 17:17 33.95868 -77.39715 36048 ft 442 kts 213°
2026-05-06 17:18 33.90182 -77.42567 36075 ft 442 kts 213°
2026-05-06 17:18 33.84538 -77.45394 36081 ft 442 kts 213°
2026-05-06 17:19 33.78850 -77.48237 36100 ft 443 kts 213°
2026-05-06 17:19 33.73152 -77.51078 36121 ft 443 kts 213°
2026-05-06 17:20 33.67465 -77.53922 36146 ft 443 kts 213°
2026-05-06 17:20 33.61776 -77.56758 36160 ft 443 kts 213°
2026-05-06 17:21 33.55761 -77.58874 36151 ft 464 kts 195°
2026-05-06 17:21 33.49243 -77.59234 36157 ft 471 kts 189°
2026-05-06 17:22 33.42738 -77.59366 36155 ft 468 kts 191°
2026-05-06 17:22 33.36267 -77.59758 36123 ft 464 kts 193°
2026-05-06 17:23 33.30901 -77.60109 36088 ft 464 kts 192°
2026-05-06 17:23 33.23334 -77.60477 36070 ft 465 kts 192°
2026-05-06 17:24 33.16861 -77.60805 36067 ft 465 kts 192°
2026-05-06 17:24 33.10422 -77.61166 36071 ft 466 kts 192°
2026-05-06 17:25 33.03913 -77.61508 36069 ft 468 kts 192°
2026-05-06 17:25 32.97397 -77.61844 36121 ft 468 kts 192°
2026-05-06 17:26 32.90940 -77.62186 36147 ft 467 kts 192°
2026-05-06 17:26 32.84435 -77.62531 36152 ft 467 kts 192°
2026-05-06 17:27 32.77943 -77.62869 36138 ft 466 kts 192°
2026-05-06 17:27 32.71459 -77.63207 36157 ft 465 kts 192°
2026-05-06 17:28 32.66086 -77.63490 36132 ft 465 kts 192°
2026-05-06 17:28 32.59620 -77.63831 36091 ft 465 kts 192°
2026-05-06 17:29 32.52094 -77.64223 36071 ft 465 kts 192°
2026-05-06 17:29 32.46710 -77.64505 36070 ft 466 kts 192°
2026-05-06 17:30 32.40231 -77.64842 36096 ft 466 kts 191°
2026-05-06 17:30 32.33757 -77.65177 36125 ft 465 kts 192°
2026-05-06 17:31 32.27289 -77.65514 36153 ft 465 kts 192°
2026-05-06 17:31 32.20808 -77.65851 36157 ft 466 kts 191°
2026-05-06 17:32 32.14333 -77.66183 36160 ft 465 kts 192°
2026-05-06 17:32 32.07859 -77.66528 36156 ft 465 kts 192°
2026-05-06 17:33 32.01381 -77.66868 36151 ft 465 kts 191°
2026-05-06 17:33 31.94948 -77.67200 36145 ft 465 kts 191°
2026-05-06 17:34 31.88492 -77.67526 36157 ft 464 kts 191°
2026-05-06 17:34 31.82038 -77.67843 36160 ft 462 kts 191°
2026-05-06 17:35 31.75622 -77.68165 36154 ft 460 kts 191°
2026-05-06 17:35 31.69232 -77.68491 36120 ft 459 kts 191°
2026-05-06 17:36 31.59668 -77.68977 36067 ft 458 kts 191°
2026-05-06 17:36 31.53325 -77.69290 36072 ft 458 kts 191°
2026-05-06 17:37 31.46932 -77.69619 36067 ft 459 kts 191°
2026-05-06 17:37 31.40541 -77.69947 36071 ft 461 kts 191°
2026-05-06 17:38 31.34128 -77.70274 36105 ft 461 kts 191°
2026-05-06 17:38 31.27721 -77.70598 36162 ft 461 kts 191°
2026-05-06 17:39 31.21303 -77.70928 36155 ft 461 kts 191°
2026-05-06 17:39 31.14890 -77.71266 36158 ft 461 kts 191°
2026-05-06 17:40 31.08477 -77.71588 36160 ft 461 kts 191°
2026-05-06 17:40 31.02097 -77.71908 36156 ft 461 kts 191°
2026-05-06 17:41 30.95692 -77.72235 36142 ft 460 kts 191°
2026-05-06 17:41 30.89287 -77.72559 36117 ft 461 kts 191°
2026-05-06 17:42 30.82877 -77.72880 36103 ft 461 kts 191°
2026-05-06 17:42 30.76470 -77.73205 36100 ft 461 kts 191°
2026-05-06 17:43 30.70095 -77.73524 36105 ft 461 kts 191°
2026-05-06 17:43 30.63692 -77.73841 36114 ft 461 kts 191°
2026-05-06 17:44 30.57280 -77.74165 36122 ft 461 kts 191°
2026-05-06 17:44 30.50866 -77.74488 36137 ft 460 kts 191°
2026-05-06 17:45 30.44457 -77.74808 36151 ft 460 kts 191°
2026-05-06 17:45 30.38022 -77.74887 36155 ft 466 kts 186°
2026-05-06 17:46 30.31576 -77.74535 36144 ft 467 kts 185°
2026-05-06 17:46 30.25078 -77.74141 36136 ft 467 kts 186°
2026-05-06 17:47 30.18578 -77.73820 36095 ft 467 kts 187°
2026-05-06 17:47 30.12067 -77.73492 36070 ft 469 kts 186°
2026-05-06 17:48 30.05537 -77.73145 36072 ft 470 kts 186°
2026-05-06 17:48 29.99032 -77.72806 36067 ft 471 kts 186°
2026-05-06 17:49 29.92474 -77.72466 36075 ft 472 kts 186°
2026-05-06 17:49 29.85900 -77.72121 36132 ft 472 kts 186°
2026-05-06 17:50 29.79330 -77.71781 36154 ft 472 kts 186°
2026-05-06 17:50 29.72767 -77.71437 36158 ft 472 kts 186°
2026-05-06 17:51 29.66206 -77.71106 36145 ft 471 kts 185°
2026-05-06 17:51 29.59712 -77.70765 36146 ft 468 kts 185°
2026-05-06 17:52 29.53221 -77.70426 36121 ft 466 kts 185°
2026-05-06 17:52 29.46736 -77.70097 36079 ft 465 kts 185°
2026-05-06 17:53 29.40276 -77.69767 36063 ft 464 kts 185°
2026-05-06 17:53 29.33856 -77.69436 36058 ft 465 kts 185°
2026-05-06 17:54 29.27389 -77.69108 36057 ft 466 kts 185°
2026-05-06 17:54 29.20894 -77.68773 36061 ft 468 kts 185°
2026-05-06 17:55 29.14383 -77.68438 36056 ft 469 kts 185°
2026-05-06 17:55 29.07848 -77.68095 36101 ft 470 kts 185°
2026-05-06 17:56 29.01319 -77.67725 36152 ft 470 kts 185°
2026-05-06 17:56 28.94770 -77.67365 36145 ft 470 kts 185°
2026-05-06 17:57 28.88250 -77.67016 36145 ft 468 kts 185°
2026-05-06 17:57 28.81785 -77.66664 36121 ft 468 kts 185°
2026-05-06 17:58 28.75283 -77.66310 36081 ft 468 kts 185°
2026-05-06 17:58 28.68776 -77.65961 36061 ft 468 kts 185°
2026-05-06 17:59 28.62264 -77.65607 36056 ft 469 kts 185°
2026-05-06 17:59 28.55744 -77.65250 36082 ft 469 kts 185°
2026-05-06 18:00 28.49216 -77.64928 36125 ft 468 kts 185°
2026-05-06 18:00 28.42742 -77.64662 36146 ft 468 kts 185°
2026-05-06 18:01 28.36217 -77.64369 36148 ft 469 kts 185°
2026-05-06 18:01 28.29706 -77.64071 36149 ft 467 kts 184°
2026-05-06 18:02 28.23223 -77.63768 36145 ft 465 kts 184°
2026-05-06 18:02 28.16765 -77.63478 36118 ft 463 kts 184°
2026-05-06 18:03 28.10332 -77.63185 36073 ft 463 kts 185°
2026-05-06 18:03 28.03889 -77.62781 36066 ft 464 kts 184°
2026-05-06 18:04 27.97478 -77.62355 36071 ft 465 kts 185°
2026-05-06 18:04 27.91004 -77.61973 36067 ft 467 kts 185°
2026-05-06 18:05 27.84499 -77.61586 36072 ft 469 kts 185°
2026-05-06 18:05 27.77965 -77.61184 36069 ft 471 kts 185°
2026-05-06 18:06 27.71398 -77.60783 36072 ft 473 kts 185°
2026-05-06 18:06 27.64861 -77.60387 36128 ft 473 kts 185°
2026-05-06 18:07 27.58283 -77.59990 36155 ft 473 kts 185°
2026-05-06 18:07 27.51703 -77.59594 36159 ft 473 kts 185°
2026-05-06 18:08 27.45136 -77.59194 36154 ft 473 kts 185°
2026-05-06 18:08 27.38562 -77.58799 36138 ft 473 kts 185°
2026-05-06 18:09 27.31970 -77.58401 36110 ft 473 kts 185°
2026-05-06 18:09 27.25398 -77.58006 36120 ft 473 kts 185°
2026-05-06 18:10 27.18877 -77.57619 36102 ft 473 kts 185°
2026-05-06 18:10 27.12296 -77.57218 36079 ft 474 kts 185°
2026-05-06 18:11 27.06772 -77.56885 36075 ft 474 kts 185°
2026-05-06 18:11 26.99097 -77.56430 36097 ft 474 kts 185°
2026-05-06 18:12 26.92504 -77.56039 36110 ft 474 kts 185°
2026-05-06 18:12 26.85901 -77.55640 36125 ft 475 kts 185°
2026-05-06 18:13 26.79339 -77.55248 36148 ft 474 kts 186°
2026-05-06 18:13 26.72744 -77.54857 36160 ft 475 kts 186°
2026-05-06 18:14 26.66138 -77.54466 36157 ft 475 kts 186°
2026-05-06 18:14 26.59538 -77.54073 36155 ft 475 kts 185°
2026-05-06 18:15 26.54042 -77.53744 36159 ft 474 kts 185°
2026-05-06 18:15 26.47452 -77.53350 36156 ft 474 kts 185°
2026-05-06 18:16 26.39790 -77.52902 36154 ft 474 kts 185°
2026-05-06 18:16 26.34281 -77.52577 36158 ft 474 kts 185°
2026-05-06 18:17 26.27687 -77.52183 36158 ft 473 kts 185°
2026-05-06 18:17 26.21160 -77.51798 36156 ft 473 kts 186°
2026-05-06 18:18 26.14588 -77.51413 36151 ft 472 kts 186°
2026-05-06 18:18 26.08014 -77.51025 36132 ft 472 kts 186°
2026-05-06 18:19 26.01449 -77.50637 36121 ft 472 kts 186°
2026-05-06 18:19 25.94880 -77.50245 36120 ft 472 kts 186°
2026-05-06 18:20 25.88321 -77.49865 36128 ft 472 kts 186°
2026-05-06 18:20 25.81765 -77.49485 36160 ft 471 kts 186°
2026-05-06 18:21 25.75260 -77.49101 36156 ft 471 kts 186°
2026-05-06 18:21 25.68713 -77.48717 36154 ft 471 kts 186°
2026-05-06 18:22 25.62161 -77.48329 36145 ft 470 kts 181°
2026-05-06 18:22 25.55660 -77.47930 36156 ft 470 kts 180°
2026-05-06 18:23 25.49134 -77.47492 36153 ft 469 kts 180°
2026-05-06 18:23 25.42614 -77.47098 36118 ft 468 kts 181°
2026-05-06 18:24 25.36110 -77.46708 36078 ft 468 kts 180°
2026-05-06 18:24 25.29595 -77.46298 36067 ft 468 kts 180°
2026-05-06 18:25 25.23116 -77.45896 36070 ft 469 kts 180°
2026-05-06 18:25 25.16576 -77.45496 36082 ft 470 kts 180°
2026-05-06 18:26 25.10034 -77.45097 36135 ft 470 kts 180°
2026-05-06 18:26 25.03531 -77.44696 36156 ft 470 kts 180°
2026-05-06 18:27 24.96996 -77.44295 36155 ft 470 kts 180°
2026-05-06 18:27 24.90461 -77.43909 36158 ft 470 kts 180°
2026-05-06 18:28 24.83959 -77.43523 36153 ft 469 kts 180°
2026-05-06 18:28 24.77432 -77.43131 36131 ft 469 kts 180°
2026-05-06 18:29 24.70913 -77.42739 36140 ft 469 kts 180°
2026-05-06 18:29 24.64393 -77.42355 36122 ft 469 kts 181°
2026-05-06 18:30 24.57860 -77.41965 36115 ft 469 kts 180°
2026-05-06 18:30 24.51380 -77.41576 36118 ft 469 kts 180°
2026-05-06 18:31 24.44850 -77.41188 36126 ft 469 kts 181°
2026-05-06 18:31 24.38336 -77.40803 36140 ft 469 kts 181°
2026-05-06 18:32 24.31818 -77.40414 36159 ft 469 kts 181°
2026-05-06 18:32 24.25288 -77.40025 36159 ft 469 kts 181°
2026-05-06 18:33 24.18769 -77.39643 36156 ft 469 kts 181°
2026-05-06 18:33 24.12282 -77.39256 36155 ft 469 kts 180°
2026-05-06 18:34 24.05755 -77.38872 36133 ft 469 kts 180°
2026-05-06 18:34 23.99226 -77.38484 36091 ft 469 kts 180°
2026-05-06 18:35 23.92723 -77.38100 36072 ft 470 kts 180°
2026-05-06 18:35 23.86192 -77.37715 36069 ft 471 kts 180°
2026-05-06 18:36 23.79651 -77.37330 36070 ft 473 kts 180°
2026-05-06 18:36 23.73067 -77.36946 36072 ft 474 kts 180°
2026-05-06 18:37 23.66464 -77.36555 36125 ft 474 kts 180°
2026-05-06 18:37 23.59879 -77.36167 36156 ft 474 kts 180°
2026-05-06 18:38 23.53285 -77.36006 36160 ft 472 kts 185°
2026-05-06 18:38 23.46729 -77.36219 36144 ft 471 kts 186°
2026-05-06 18:39 23.40222 -77.36445 36104 ft 470 kts 185°
2026-05-06 18:40 23.30393 -77.36711 36070 ft 471 kts 185°
2026-05-06 18:40 23.23829 -77.36911 36069 ft 472 kts 185°
2026-05-06 18:41 23.17288 -77.37108 36085 ft 472 kts 185°
2026-05-06 18:41 23.10718 -77.37297 36144 ft 472 kts 185°
2026-05-06 18:42 23.04139 -77.37491 36160 ft 472 kts 185°
2026-05-06 18:42 22.97562 -77.37685 36157 ft 472 kts 185°
2026-05-06 18:43 22.91031 -77.37875 36155 ft 472 kts 185°
2026-05-06 18:43 22.84452 -77.38071 36123 ft 472 kts 185°
2026-05-06 18:44 22.77868 -77.38264 36105 ft 472 kts 185°
2026-05-06 18:44 22.71289 -77.38453 36094 ft 472 kts 185°
2026-05-06 18:45 22.64715 -77.38648 36072 ft 472 kts 185°
2026-05-06 18:45 22.58145 -77.38840 36058 ft 472 kts 185°
2026-05-06 18:46 22.51602 -77.39029 36068 ft 472 kts 185°
2026-05-06 18:46 22.45034 -77.39226 36073 ft 472 kts 184°
2026-05-06 18:47 22.38456 -77.39413 36033 ft 473 kts 184°
2026-05-06 18:47 22.31875 -77.39603 36032 ft 474 kts 184°
2026-05-06 18:48 22.25311 -77.39797 36036 ft 475 kts 184°
2026-05-06 18:48 22.18688 -77.39987 36089 ft 475 kts 184°
2026-05-06 18:49 22.12084 -77.40179 36119 ft 475 kts 184°
2026-05-06 18:49 22.05469 -77.40372 36123 ft 475 kts 184°
2026-05-06 18:50 21.98890 -77.40562 36122 ft 475 kts 184°
2026-05-06 18:50 21.92275 -77.40752 36118 ft 474 kts 184°
2026-05-06 18:51 21.85679 -77.40942 36103 ft 474 kts 184°
2026-05-06 18:51 21.79078 -77.41135 36092 ft 474 kts 184°
2026-05-06 18:52 21.72474 -77.41323 36087 ft 474 kts 184°
2026-05-06 18:52 21.65921 -77.41513 36090 ft 474 kts 184°
2026-05-06 18:53 21.59311 -77.41704 36085 ft 475 kts 184°
2026-05-06 18:53 21.52704 -77.41893 36084 ft 475 kts 184°
2026-05-06 18:54 21.46095 -77.42073 36104 ft 474 kts 184°
2026-05-06 18:54 21.39521 -77.42261 36104 ft 474 kts 184°
2026-05-06 18:55 21.32921 -77.42451 36112 ft 474 kts 184°
2026-05-06 18:55 21.26315 -77.42644 36114 ft 475 kts 184°
2026-05-06 18:56 21.19702 -77.42834 36112 ft 475 kts 184°
2026-05-06 18:56 21.13100 -77.43035 36093 ft 475 kts 184°
2026-05-06 18:57 21.06477 -77.43225 36081 ft 475 kts 184°
2026-05-06 18:57 20.99903 -77.43412 36080 ft 475 kts 184°
2026-05-06 18:58 20.93288 -77.43602 36084 ft 475 kts 184°
2026-05-06 18:58 20.86672 -77.43802 36093 ft 475 kts 184°
2026-05-06 18:59 20.80048 -77.43999 36104 ft 475 kts 184°
2026-05-06 18:59 20.73439 -77.44185 36108 ft 475 kts 184°
2026-05-06 19:00 20.66823 -77.44366 36100 ft 475 kts 183°
2026-05-06 19:00 20.60202 -77.44551 36080 ft 475 kts 183°
2026-05-06 19:01 20.53636 -77.44739 36040 ft 475 kts 183°
2026-05-06 19:01 20.47015 -77.44909 36008 ft 475 kts 183°
2026-05-06 19:02 20.40392 -77.45068 36014 ft 476 kts 183°
2026-05-06 19:02 20.33767 -77.45245 36012 ft 476 kts 183°
2026-05-06 19:03 20.27136 -77.45413 36050 ft 476 kts 183°
2026-05-06 19:03 20.21627 -77.45550 36080 ft 476 kts 183°
2026-05-06 19:04 20.14999 -77.45719 36096 ft 476 kts 183°
2026-05-06 19:04 20.08367 -77.45888 36102 ft 476 kts 183°
2026-05-06 19:05 20.00658 -77.46084 36098 ft 476 kts 183°
2026-05-06 19:05 19.95103 -77.46225 36092 ft 476 kts 183°
2026-05-06 19:06 19.88502 -77.46393 36075 ft 476 kts 183°
2026-05-06 19:06 19.81879 -77.46562 36058 ft 476 kts 183°
2026-05-06 19:07 19.75242 -77.46729 36045 ft 476 kts 183°
2026-05-06 19:07 19.68613 -77.46896 36051 ft 476 kts 183°
2026-05-06 19:08 19.61982 -77.47062 36046 ft 476 kts 183°
2026-05-06 19:08 19.55355 -77.47230 36051 ft 476 kts 183°
2026-05-06 19:09 19.48726 -77.47160 36033 ft 478 kts 171°
2026-05-06 19:09 19.42389 -77.45163 36058 ft 478 kts 160°
2026-05-06 19:10 19.36149 -77.42670 36044 ft 479 kts 160°
2026-05-06 19:10 19.29863 -77.40350 36060 ft 479 kts 162°
2026-05-06 19:11 19.23518 -77.38121 36056 ft 479 kts 161°
2026-05-06 19:11 19.17262 -77.35824 36077 ft 479 kts 161°
2026-05-06 19:12 19.10971 -77.33504 36088 ft 479 kts 161°
2026-05-06 19:12 19.04644 -77.31215 36071 ft 480 kts 161°
2026-05-06 19:13 18.98329 -77.28922 36083 ft 480 kts 161°
2026-05-06 19:13 18.92137 -77.26262 36090 ft 480 kts 155°
2026-05-06 19:14 18.86109 -77.23248 36127 ft 479 kts 154°
2026-05-06 19:14 18.80084 -77.20231 36104 ft 479 kts 155°
2026-05-06 19:15 18.74019 -77.17288 36093 ft 480 kts 155°
2026-05-06 19:15 18.68001 -77.14342 36088 ft 480 kts 155°
2026-05-06 19:16 18.61946 -77.11355 36089 ft 480 kts 155°
2026-05-06 19:16 18.55876 -77.08388 36093 ft 480 kts 155°
2026-05-06 19:17 18.49817 -77.05429 36098 ft 480 kts 155°
2026-05-06 19:17 18.43796 -77.02475 36081 ft 481 kts 155°
2026-05-06 19:18 18.37722 -76.99514 36103 ft 480 kts 155°
2026-05-06 19:18 18.31652 -76.96561 36085 ft 481 kts 155°
2026-05-06 19:19 18.25564 -76.93594 36045 ft 482 kts 155°
2026-05-06 19:19 18.19368 -76.91063 36013 ft 480 kts 173°
2026-05-06 19:19 18.16065 -76.91084 36037 ft 473 kts 193°
2026-05-06 19:20 18.12994 -76.92185 36049 ft 464 kts 211°
2026-05-06 19:20 18.07190 -76.95224 36055 ft 468 kts 208°
2026-05-06 19:21 18.01138 -76.97866 36040 ft 475 kts 199°
2026-05-06 19:21 17.97848 -76.98318 36031 ft 481 kts 179°
2026-05-06 19:21 17.94561 -76.97666 36071 ft 482 kts 162°
2026-05-06 19:22 17.88163 -76.95697 36126 ft 482 kts 167°
2026-05-06 19:22 17.81632 -76.94044 36130 ft 482 kts 168°
2026-05-06 19:23 17.75104 -76.92459 36127 ft 481 kts 168°
2026-05-06 19:23 17.68587 -76.90887 36126 ft 480 kts 168°
2026-05-06 19:24 17.62116 -76.89329 36120 ft 479 kts 168°
2026-05-06 19:24 17.55619 -76.87765 36111 ft 479 kts 168°
2026-05-06 19:25 17.49115 -76.86225 36064 ft 479 kts 167°
2026-05-06 19:25 17.42612 -76.84771 36049 ft 475 kts 168°
2026-05-06 19:26 17.36162 -76.83348 36037 ft 472 kts 168°
2026-05-06 19:26 17.29761 -76.81937 35995 ft 469 kts 168°
2026-05-06 19:27 17.23372 -76.80528 35967 ft 468 kts 168°
2026-05-06 19:27 17.17034 -76.79129 35970 ft 468 kts 168°
2026-05-06 19:28 17.10650 -76.77719 35967 ft 469 kts 168°
2026-05-06 19:28 17.04245 -76.76303 35972 ft 471 kts 168°
2026-05-06 19:29 16.97858 -76.74890 35972 ft 473 kts 168°
2026-05-06 19:29 16.91408 -76.73462 35973 ft 475 kts 168°
2026-05-06 19:30 16.84930 -76.72027 36014 ft 475 kts 168°
2026-05-06 19:30 16.78458 -76.70592 36069 ft 475 kts 168°
2026-05-06 19:31 16.71977 -76.69153 36063 ft 476 kts 168°
2026-05-06 19:31 16.62258 -76.66995 36061 ft 475 kts 168°
2026-05-06 19:32 16.55815 -76.65564 36037 ft 475 kts 168°
2026-05-06 19:32 16.49349 -76.64128 36046 ft 475 kts 168°
2026-05-06 19:33 16.42877 -76.62691 36014 ft 475 kts 168°
2026-05-06 19:33 16.36403 -76.61253 35999 ft 475 kts 168°
2026-05-06 19:34 16.29932 -76.59816 35991 ft 475 kts 168°
2026-05-06 19:34 16.23504 -76.58388 35994 ft 475 kts 168°
2026-05-06 19:35 16.17030 -76.56949 36003 ft 475 kts 168°
2026-05-06 19:35 16.10555 -76.55511 36016 ft 475 kts 168°
2026-05-06 19:36 16.04082 -76.54073 36028 ft 475 kts 168°
2026-05-06 19:36 15.97603 -76.52633 36016 ft 476 kts 168°
2026-05-06 19:37 15.91109 -76.51190 35990 ft 477 kts 168°
2026-05-06 19:37 15.85722 -76.49994 36033 ft 476 kts 168°
2026-05-06 19:38 15.78147 -76.48311 36033 ft 476 kts 168°
2026-05-06 19:38 15.71702 -76.46879 36052 ft 476 kts 168°
2026-05-06 19:39 15.65218 -76.45438 36059 ft 476 kts 168°
2026-05-06 19:39 15.58734 -76.43997 36069 ft 476 kts 168°
2026-05-06 19:40 15.52298 -76.42566 36078 ft 476 kts 168°
2026-05-06 19:40 15.45815 -76.41125 36072 ft 476 kts 168°
2026-05-06 19:41 15.39339 -76.39686 36064 ft 476 kts 168°
2026-05-06 19:41 15.32864 -76.38247 36074 ft 475 kts 168°
2026-05-06 19:42 15.26402 -76.36811 36061 ft 475 kts 168°
2026-05-06 19:42 15.19971 -76.35383 36050 ft 475 kts 168°
2026-05-06 19:43 15.13502 -76.33947 36053 ft 475 kts 168°
2026-05-06 19:43 15.07046 -76.32510 36069 ft 474 kts 168°
2026-05-06 19:44 15.00595 -76.31055 36079 ft 474 kts 168°
2026-05-06 19:44 14.94157 -76.29597 36079 ft 474 kts 168°
2026-05-06 19:45 14.87702 -76.28135 36070 ft 474 kts 168°
2026-05-06 19:45 14.81309 -76.26686 36081 ft 473 kts 168°
2026-05-06 19:46 14.74877 -76.25228 36075 ft 473 kts 168°
2026-05-06 19:46 14.68438 -76.23767 36073 ft 473 kts 168°
2026-05-06 19:47 14.62009 -76.22309 36067 ft 473 kts 168°
2026-05-06 19:47 14.55566 -76.20847 36070 ft 473 kts 168°
2026-05-06 19:48 14.49137 -76.19387 36082 ft 473 kts 168°
2026-05-06 19:48 14.44896 -76.18424 36064 ft 473 kts 168°